This is the latest recevied weather packets stored in our database for station/object W8UFO-13. If no packets are shown the sender has not sent any weather packets the latest 10 day(s).
| Time | Temp. | Humidity | Pressure | Rain* | Wind** | Luminosity | Snow |
|---|---|---|---|---|---|---|---|
| 1777936757 | 23.33° C | 52% | 1013.6 hPa | 0 mm | - | - | - |
| 1777936457 | 23.89° C | 52% | 1013.6 hPa | 0 mm | - | - | - |
| 1777936157 | 23.89° C | 51% | 1013.5 hPa | 0 mm | - | - | - |
| 1777935857 | 23.33° C | 52% | 1013.5 hPa | 0 mm | - | - | - |
| 1777935557 | 23.89° C | 51% | 1013.4 hPa | 0 mm | - | - | - |
| 1777935257 | 23.89° C | 50% | 1013.6 hPa | 0 mm | - | - | - |
| 1777934957 | 23.89° C | 50% | 1013.6 hPa | 0 mm | - | - | - |
| 1777934657 | 23.89° C | 49% | 1013.7 hPa | 0 mm | - | - | - |
| 1777934357 | 23.89° C | 48% | 1013.7 hPa | 0 mm | - | - | - |
| 1777934057 | 24.44° C | 49% | 1013.7 hPa | 0 mm | - | - | - |
| 1777933757 | 24.44° C | 48% | 1013.7 hPa | 0 mm | - | - | - |
| 1777933457 | 24.44° C | 47% | 1013.7 hPa | 0 mm | - | - | - |
| 1777933157 | 24.44° C | 46% | 1013.8 hPa | 0 mm | - | - | - |
| 1777932857 | 24.44° C | 47% | 1013.8 hPa | 0 mm | - | - | - |
| 1777932557 | 25° C | 45% | 1013.9 hPa | 0 mm | - | - | - |
| 1777932257 | 25.56° C | 46% | 1014 hPa | 0 mm | - | - | - |
| 1777931957 | 25.56° C | 44% | 1014.1 hPa | 0 mm | - | - | - |
| 1777931657 | 26.11° C | 44% | 1013.9 hPa | 0 mm | - | - | - |
| 1777931357 | 25.56° C | 45% | 1014 hPa | 0 mm | - | - | - |
| 1777931057 | 25.56° C | 44% | 1014.1 hPa | 0 mm | - | - | - |
| 1777930757 | 26.11° C | 44% | 1013.9 hPa | 0 mm | - | - | - |
| 1777930457 | 26.11° C | 46% | 1014 hPa | 0 mm | - | - | - |
| 1777930157 | 26.11° C | 44% | 1014 hPa | 0 mm | - | - | - |
| 1777929857 | 26.11° C | 44% | 1014.1 hPa | 0 mm | - | - | - |
| 1777929557 | 26.11° C | 48% | 1014.1 hPa | 0 mm | - | - | - |
* Rain latest hour (hover to see other rain measurements)
** Current wind speed in m/s (hover to see current wind gust speed)